Home   Weather   El Aaiún   Past weeks

Past Weather in El Aaiún, Western Sahara — Yesterday and Last 2 Weeks

Now
70 °F

Passing clouds.


Feels Like: 70 °F
Forecast: 68 / 81 °F
Wind: 9 mph from North

Location: Laayoune/Hassan Isl

Current Time: Sep 29, 2016 at 4:20:26 AM

Latest Report: Sep 29, 2016 at 3:00 AM


Visibility: 4 mi

Pressure: 29.95 "Hg

Humidity: 88%

Dew Point: 66 °F

Location of El AaiúnLocation

Past Weather in El Aaiún — Graph

°F

El Aaiún Temperature Yesterday

Maximum temperature yesterday: 82 °F (at 2:00 PM)
Minimum temperature yesterday: 68 °F (at 1:00 AM)
Average temperature yesterday: 74 °F

High & Low Weather Summary for the Past Weeks

 TemperatureHumidityPressure
High90 °F (Sep 14, 8:00 PM)94% (Sep 19, 4:00 AM)30.15 "Hg (Sep 19, 4:00 AM)
Low64 °F (Sep 22, 3:00 AM)36% (Sep 14, 8:00 PM)29.92 "Hg (Sep 28, 4:00 PM)
Average74 °F67%30.05 "Hg
* Reported Sep 14 3:00 AM — Sep 29 3:00 AM, El Aaiún, Weather by CustomWeather, © 2016

Note: Actual official high and low records may vary slightly from our data, if they occured in-between our weather recording intervals... More about our weather records

Advertising

El Aaiún Weather History for the Previous 24 Hours

Scroll right to see more
 ConditionsComfort  
Time TempWeatherWind HumidityBarometerVisibility
3:00 AM
Thu, Sep 29
70 °FPassing clouds.9 mph88%29.95 "Hg4 mi
2:00 AM70 °FPassing clouds.8 mph88%29.95 "Hg4 mi
12:00 AM70 °FPassing clouds.7 mph88%29.98 "Hg5 mi
11:00 PM
Wed, Sep 28
72 °FPassing clouds.9 mph83%29.98 "Hg5 mi
10:00 PM70 °FPassing clouds.9 mph88%29.98 "Hg5 mi
9:00 PM72 °FClear.12 mph83%29.95 "Hg10 mi
7:00 PM75 °FSunny.16 mph74%29.92 "Hg10 mi
6:00 PM77 °FSunny.17 mph69%29.92 "Hg10 mi
5:00 PM81 °FSunny.18 mph62%29.92 "Hg10 mi
4:00 PM81 °FSunny.17 mph58%29.92 "Hg10 mi
3:00 PM82 °FSunny.14 mph55%29.95 "Hg10 mi
2:00 PM82 °FSunny.14 mph55%29.95 "Hg10 mi
1:00 PM79 °FScattered clouds.14 mph61%29.98 "HgN/A
12:00 PM77 °FPartly sunny.16 mph65%30.01 "HgN/A
11:00 AM75 °FPartly sunny.15 mph69%30.01 "Hg5 mi
10:00 AM72 °FPartly sunny.17 mph78%30.01 "Hg5 mi
9:00 AM72 °FOvercast.14 mph78%29.98 "Hg5 mi
8:00 AM72 °FOvercast.9 mph73%29.98 "Hg5 mi
7:00 AM70 °FPassing clouds.15 mph78%29.98 "Hg5 mi
Weather by CustomWeather, © 2016

See weather overviewHow to use our weather pages